Location: *
(46.4000°N, 12.6667°E)
Time: 17:59:52
(UTC+00:00)

Cosmos 1959 Rocket - Pass Details

Date: 09 April 2020
Orbit: 946 x 998 km, 82.9° (Epoch: 02 June)

Event Time Altitude Azimuth Distance (km) Brightness Sun altitude
Rises 19:40:18 0° 352° (N) 3,716 8.2 -18.3°
Reaches altitude 10° 19:42:52 10° 354° (N) 2,757 7.4 -18.7°
Maximum altitude 19:49:11 74° 80° (E) 1,018 4.4 -19.6°
Enters shadow 19:52:36 29° 161° (SSE) 1,716 5.3 -20.0°
